Погода в Полоцком

Россия / Саратовская область     51°04′18″N   43°19′38″E
темп.,
°C
ветер,
м/с
пор.,
м/с
влажн.,
%
обл.,
%
осадки,
мм/ч
давл.,
гПа
погр.,
м
25 мая, ср
ср2501:00+8зсз368788 0.1 1009118
04:00+6с35955 0.1 1011106
07:00+7с4678100 0.0 1012272
10:00+11ссз456293 0.0 1013880
13:00+11сз6859100 0.0 10151639
16:00+11ссз5659100 0.0 10161239
19:00+10сз356199 0.0 10161223
22:00+6ссз117489 0.0 101710
26 мая, чт
чт2601:00+6ю1171100 0.0 101810
04:00+8ююз2368100 0.0 101852
07:00+9ююз347246 0.0 1017182
10:00+13ююз456859 0.0 1016492
13:00+17юз575680 0.2 10151505
16:00+20зюз5742100 0.3 10142491
19:00+15юз4973100 0.0 1013241
22:00+14ююз61380100 0.3 1012633
27 мая, пт
пт2701:00+12юз91593100 3.8 10101007
04:00+12юз7129113 4.3 1009567
07:00+11юз71494100 0.3 1008592
10:00+14зюз81283100 0.7 1008935
13:00+16з9137899 2.6 10071559
16:00+17зсз9126327 4.2 10071790
19:00+16зсз712667 0.6 10081401
22:00+11з49855 0.7 1011177
28 мая, сб
сб2801:00+9зюз499148 0.0 1012161
04:00+8ююз48915 0.0 1012137
07:00+11ююз614821 0.0 1011405
10:00+18ююз9146617 0.0 1010883
13:00+20юз812683 0.4 10101485
16:00+21зюз9146822 1.8 10101770
19:00+16сз478815 1.2 1012390
22:00+14зюз239286 1.3 101490
29 мая, вс
вс2901:00+13з229577 0.0 101521
04:00+13юз0094100 0.2 101510
07:00+13ссв3595100 0.9 1016196
10:00+14св4587100 0.9 1016349
13:00+19ссв127790 0.0 1016730
16:00+17ссв667888 0.2 1017442
19:00+16св557999 0.0 1018410
22:00+13ссв4789100 0.0 1019170